ATLAS 5 CENTAUR DEB, 44682

Orbit data source: Space-Track

ATLAS 5 CENTAUR DEB, 44682 is space debris in HEO originally from a launch on Wed, 17 Oct 2018 UTC launched from the Air Force Eastern Test Range (AFETR). Debris objects in space refer to the collection of defunct objects orbiting the Earth. Examples of debris include non-operational satellites, rocket bodies, and fragments generated from explosions, collisions, or faulty payload assembly.

Loading next visibility...
Identifier
44682, 2018-079AU
Orbit
HEO
Country
Flag of USUS
Related business
Flag of USUnited Launch Alliance/Lockheed Martin (US)
Manufacturer
ULA Decatur
Mission
Spacecraft
Bus & Motor
Unknown
Mass
Unknown
Launch date (UTC)
2018-10-17 (8 years ago)
Launch vehicle
Unknown
Launch site
Air Force Eastern Test Range (AFETR)
Object type
Payload
Rocket body
Debris
Shape & HBR
Unknown shape, 1.1 m
Radar Cross Section
Medium (>0.1 m² and <1 m²)

Expand to show TLE details & history
Last TLE update: 2 weeks ago

TLE from 2 weeks ago
0 ATLAS 5 CENTAUR DEB
1 44682U 18079AU  26223.99163219 -.00000193  00000-0  00000-0 0  9998
2 44682  13.4477  31.4501 4639020 320.9014  13.1913  1.81923471 47879
Epoch: 2026-08-11T23:47Z
TLE epoch observation values (Epoch: 2026-08-11T23:47:57.021Z)
Latitude
-0.00001°
Longitude
74.06637°
Altitude
9,978.189 km
Speed
5.889 km/s
True Right ascension
02h 06m 01s
True Declination
0° 00' 00"
Sunlit
Object was in daylight at epoch
Visualization orbit readout
Latitude
Unknown
Longitude
Unknown
Altitude
Unknown
Speed
Unknown
Apparent Right ascension
Unknown
Apparent Declination
Unknown
Sunlit
N/A
Visualization observer readout
Local Sidereal Time
19:04:42
Azimuth
Unknown
Elevation
Unknown
Doppler factor
Unknown
Orbital elements
Apogee altitude
35,119.155 km
Perigee altitude
8,818.656 km
Semi-major axis
28,347.042 km
Eccentricity
0.4639
Inclination
13.4477°
RAAN
31.4501°
Arg. of periapsis
320.9014°
True anomaly
38.71289°
Mean anomaly
13.1913°
Eccentric anomaly
24.00383°
Mean motion
0.45476 °/min
Orbital period
791.63 mins
BSTAR
0
Loading maneuver chart data...
Computing Atmospheric mass density...

Documentation

Showing up to 5 results
|